Back to catalog

STARLINK-2145

AliveCommunicationsVLEO
NORAD 48555·PAYLOAD·🇺🇸 United States

Launched May 15, 2021 from Cape Canaveral Space Force Station

Loading…

Next Passes (next 24 hours)

TLE

FreshSource: CelesTrak SupGP

Epoch: Sep 14, 2026, 21:24 UTC

1 48555C 21041C   26257.89215278 -.00076070  00000+0 -24475-2 0  2571
2 48555  53.1604 348.4432 0001158  84.0539 128.0637 15.31723670    13

Track STARLINK-2145 in real time with AllMySat

Download on the App Store